Content
SEND FEEDBACK

Daily
Averages
Monthly
Summary
Netherlands

MAASTRICHT, NETHERLANDS


Home > Europe > Netherlands
Elevation: 380 feet     Latitude: 50 55N     Longitude: 005 47E

WEATHER
 
SELECT A DAY
Number of Records: 302,911;   Date Range: 7/1/96 - 9/15/14
 
SHARE

PRINT THIS DATA

[ ← Previous Day ]
WEATHER ALMANAC - DECEMBER 31, 2013
[ Next Day → ]
[ °C ]   °F
Weather ElementAverageHighLow
Temperature44.3 °F50 °F (2:55 pm)41 °F (2:55 am)
Dewpoint34.4 °F38 °F (7:00 am)29 °F (9:00 pm)
Humidity66.3 %87 % (2:55 am)37 % (3:00 pm)
Barometer29.93 in30.11 in (1:00 am)29.77 in (7:55 pm)
Wind Speed13.1 mph19.6 mph (7:55 pm)
Weather ElementAverage
Visibility12.1 mi
Wind DirectionS (180.7 °)

Weather ElementTotal
Precipitation---
Heating Degree Days19.5 (Base 65)
Averaged from 71 records on December 31, 2013
WEATHER CONDITIONS BREAKOUT
WIND DIRECTION BREAKOUT
WEATHER BY HOUR - DECEMBER 31, 2013
[ °C ]   °F
Local TimeTemperatureDewpointHumidityBarometerVisibilityWind DirectionWind SpeedGust SpeedPrecipitationEventsConditions
12:25 AM42.8 °F35.6 °F76 %30.06 in6.2 miSouth (190°)13.8 mphOvercast
12:55 AM42.8 °F37.4 °F81 %30.06 in6.2 miSSW (200°)13.8 mphOvercast
1:00 AM42.0 °F36.0 °F74 %30.11 in28.0 miSSW (200°)13.4 mphPartly Cloudy
1:25 AM42.8 °F37.4 °F81 %30.06 in6.2 miSouth (180°)10.4 mphOvercast
1:55 AM42.8 °F37.4 °F81 %30.06 in6.2 miSSW (200°)11.5 mphOvercast
2:00 AM42.0 °F37.0 °F75 %30.11 in28.0 miSW (220°)13.4 mphOvercast
2:25 AM42.8 °F37.4 °F81 %30.06 in6.2 miSSW (210°)13.8 mphOvercast
2:55 AM41.0 °F37.4 °F87 %30.06 in6.2 miSSW (200°)10.4 mphOvercast
3:00 AM42.0 °F37.0 °F76 %30.11 in22.0 miSSW (200°)11.2 mphOvercast
3:25 AM42.8 °F37.4 °F81 %30.06 in6.2 miSouth (190°)8.1 mphOvercast
3:55 AM42.8 °F37.4 °F81 %30.06 in6.2 miSouth (180°)8.1 mphOvercast
4:00 AM42.0 °F37.0 °F75 %30.10 in25.0 miSouth (180°)8.9 mphOvercast
4:25 AM42.8 °F37.4 °F81 %30.06 in6.2 miSSE (160°)8.1 mphOvercast
4:55 AM41.0 °F37.4 °F87 %30.04 in6.2 miSSE (160°)8.1 mphMostly Cloudy
5:00 AM41.0 °F37.0 °F82 %30.07 in18.0 miSouth (170°)6.7 mphRainDrizzle
5:25 AM41.0 °F37.4 °F87 %30.04 in6.2 miSSE (160°)9.2 mphPartly Cloudy
5:55 AM41.0 °F37.4 °F87 %30.04 in6.2 miSouth (190°)11.5 mphDrizzle
6:00 AM41.0 °F37.0 °F82 %30.04 in12.0 miSouth (180°)11.2 mphRainLight Drizzle
6:25 AM41.0 °F37.4 °F87 %30.01 in6.2 miSouth (180°)12.7 mphPartly Cloudy
6:55 AM41.0 °F37.4 °F87 %30.01 in6.2 miSouth (180°)12.7 mphPartly Cloudy
7:00 AM42.0 °F38.0 °F79 %30.04 in22.0 miSouth (180°)13.4 mphRainRain
7:25 AM41.0 °F37.4 °F87 %30.01 in6.2 miSouth (190°)15.0 mphScattered Clouds
7:55 AM41.0 °F35.6 °F81 %30.01 in6.2 miSouth (180°)16.1 mphLight Drizzle
8:00 AM42.0 °F36.0 °F71 %30.02 in25.0 miSouth (170°)15.7 mphRainDrizzle
8:25 AM41.0 °F35.6 °F81 %29.98 in6.2 miSouth (170°)13.8 mph
8:55 AM42.8 °F33.8 °F70 %29.98 in6.2 miSouth (180°)12.7 mph
9:00 AM42.0 °F34.0 °F66 %30.01 in25.0 miSouth (180°)13.4 mph
9:25 AM42.8 °F33.8 °F70 %29.98 in6.2 miSouth (180°)15.0 mph
9:55 AM44.6 °F35.6 °F71 %29.98 in6.2 miSouth (170°)16.1 mph
10:00 AM44.0 °F36.0 °F63 %29.99 in25.0 miSouth (170°)13.4 mphMostly Cloudy
10:25 AM44.6 °F35.6 °F71 %29.95 in6.2 miSouth (170°)15.0 mph
10:55 AM44.6 °F37.4 °F76 %29.95 in6.2 miSouth (170°)12.7 mph
11:00 AM45.0 °F37.0 °F66 %29.98 in22.0 miSouth (170°)15.7 mphMostly Cloudy
11:25 AM44.6 °F37.4 °F76 %29.95 in6.2 miSouth (180°)16.1 mph
11:55 AM46.4 °F35.6 °F66 %29.95 in6.2 miSouth (180°)13.8 mph
12:00 PM46.0 °F36.0 °F57 %29.96 in19.0 miSouth (180°)17.9 mphOvercast
12:25 PM46.4 °F35.6 °F66 %29.92 in6.2 miSouth (170°)13.8 mph
12:55 PM46.4 °F35.6 °F66 %29.92 in6.2 miSouth (180°)12.7 mph
1:00 PM47.0 °F34.0 °F50 %29.93 in25.0 miSouth (180°)15.7 mphPartly Cloudy
1:25 PM48.2 °F33.8 °F58 %29.89 in6.2 miSouth (180°)12.7 mph
1:55 PM48.2 °F33.8 °F58 %29.89 in6.2 miSouth (170°)12.7 mph
2:00 PM49.0 °F31.0 °F38 %29.90 in19.0 miSouth (180°)13.4 mphMostly Cloudy
2:25 PM48.2 °F32.0 °F54 %29.86 in6.2 miSouth (180°)11.5 mph
2:55 PM50.0 °F30.2 °F47 %29.86 in6.2 miSouth (190°)10.4 mph
3:00 PM49.0 °F31.0 °F37 %29.87 in28.0 miSouth (180°)13.4 mphOvercast
3:25 PM48.2 °F32.0 °F54 %29.86 in6.2 miSouth (190°)12.7 mph
3:55 PM48.2 °F32.0 °F54 %29.83 in6.2 miSouth (180°)10.4 mph
4:00 PM48.0 °F32.0 °F42 %29.86 in28.0 miSouth (170°)8.9 mphOvercast
4:25 PM46.4 °F33.8 °F62 %29.86 in6.2 miSW (220°)9.2 mph
4:55 PM46.4 °F33.8 °F62 %29.83 in6.2 miSouth (190°)11.5 mph
5:00 PM46.0 °F33.0 °F48 %29.86 in28.0 miSouth (180°)11.2 mphOvercast
5:25 PM46.4 °F32.0 °F57 %29.83 in6.2 miSSE (160°)8.1 mph
5:55 PM46.4 °F32.0 °F57 %29.83 in6.2 miSSE (160°)15.0 mph
6:00 PM45.0 °F31.0 °F46 %29.84 in28.0 miSSE (150°)13.4 mphOvercast
6:25 PM44.6 °F30.2 °F57 %29.80 in6.2 miSSE (160°)15.0 mph
6:55 PM44.6 °F30.2 °F57 %29.80 in6.2 miSouth (170°)13.8 mph
7:00 PM45.0 °F31.0 °F45 %29.83 in28.0 miSouth (170°)15.7 mphPartly Cloudy
7:25 PM44.6 °F30.2 °F57 %29.80 in6.2 miSouth (170°)16.1 mph
7:55 PM46.4 °F30.2 °F53 %29.77 in6.2 miSouth (170°)19.6 mph
8:00 PM46.0 °F30.0 °F42 %29.82 in28.0 miSouth (180°)13.4 mphOvercast
8:25 PM44.6 °F30.2 °F57 %29.80 in6.2 miSouth (190°)11.5 mph
8:55 PM46.4 °F30.2 °F53 %29.77 in6.2 miSouth (170°)15.0 mph
9:00 PM46.0 °F29.0 °F40 %29.81 in28.0 miSouth (170°)15.7 mphOvercast
9:25 PM46.4 °F30.2 °F53 %29.80 in6.2 miSouth (190°)16.1 mphOvercast
9:55 PM44.6 °F32.0 °F61 %29.77 in6.2 miSouth (180°)16.1 mphOvercast
10:00 PM44.0 °F32.0 °F52 %29.81 in25.0 miSouth (180°)15.7 mphRainLight Rain Showers
10:25 PM44.6 °F32.0 °F61 %29.77 in6.2 miSouth (180°)13.8 mphOvercast
10:55 PM44.6 °F33.8 °F66 %29.77 in6.2 miSSW (200°)12.7 mphOvercast
11:00 PM44.0 °F34.0 °F59 %29.81 in28.0 miSouth (190°)11.2 mphRainRain Showers
11:25 PM42.8 °F35.6 °F76 %29.80 in6.2 miSSW (200°)16.1 mphRainLight Rain
11:55 PM42.8 °F37.4 °F81 %29.80 in6.2 miSSW (200°)19.6 mphRainHeavy Drizzle
Hourly data recorded from EHBK, located miles away from Maastricht, Netherlands







STORIES FROM OUR PARTNERS